Valdosta, GA

7:52 PM EDT on August 26, 2016 (GMT -0400)
Moody Air Force Base

Weather History for KVAD - October, 2013

Change the Weather History Date:

Wednesday, October 16, 2013

  Actual Average Record
Temperature  
Mean Temperature 72 °F -  
Max Temperature 82 °F 77 °F 86 °F (2015)
Min Temperature 62 °F 56 °F 49 °F (2010)
Cooling Degree Days 6    
Growing Degree Days 22 (Base 50)    
Moisture  
Dew Point 63 °F    
Average Humidity 80    
Maximum Humidity 99    
Minimum Humidity 51    
Precipitation  
Precipitation 0.00 in - - ()
Sea Level Pressure  
Sea Level Pressure 29.99 in    
Wind  
Wind Speed 3 mph (NE)    
Max Wind Speed 8 mph    
Max Gust Speed -    
Visibility 10 miles    
Events Rain    
Averages and records for this station are not official NWS values.
T = Trace of Precipitation, MM = Missing Value Source: NWS Daily Summary

Daily Weather History Graph

Daily Weather History Graph

Search for Another Location

Airport or City:

Trip Planner

Search our weather history database for the weather conditions in past years. The results will help you decide how hot, cold, wet, or windy it might be!

Date:

Astronomy

Oct. 16, 2013 Rise Set
Actual Time 7:36 AM EDT 6:59 PM EDT
Civil Twilight 7:11 AM EDT 7:24 PM EDT
Nautical Twilight 6:43 AM EDT 7:52 PM EDT
Astronomical Twilight 6:15 AM EDT 8:20 PM EDT
Moon 5:32 PM EDT (10/16) 5:11 AM EDT (10/16)
Length of Visible Light 12h 12m
Length of Day
11h 23m
Waxing Gibbous, 94% of the Moon is Illuminated
Oct 16
Waxing Gibbous
Oct 18
Full
Oct 26
Last Quarter
Nov 3
New
Nov 10
First Quarter

Hourly Weather History & Observations

Time (EDT) Temp. Heat Index Dew Point Humidity Pressure Visibility Wind Dir Wind Speed Gust Speed Precip Events Conditions
12:58 AM 66.7 °F - 62.8 °F 87% 30.03 in 10.0 mi NE 4.6 mph - N/A   Overcast
1:58 AM 66.2 °F - 63.5 °F 91% 30.01 in 10.0 mi NE 2.3 mph - N/A   Overcast
2:58 AM 66.0 °F - 63.7 °F 92% 30.01 in 10.0 mi ENE 1.2 mph - N/A   Overcast
3:58 AM 65.7 °F - 64.0 °F 94% 29.99 in 10.0 mi East 3.5 mph - N/A   Overcast
4:58 AM 65.1 °F - 64.0 °F 96% 29.99 in 10.0 mi North 3.5 mph - N/A   Overcast
5:58 AM 65.3 °F - 64.2 °F 96% 29.99 in 10.0 mi Variable 5.8 mph - N/A   Overcast
6:58 AM 63.5 °F - 63.0 °F 98% 30.00 in 10.0 mi NNE 3.5 mph - N/A   Clear
7:58 AM 62.1 °F - 61.7 °F 99% 30.02 in 10.0 mi NE 2.3 mph - N/A   Clear
8:58 AM 65.5 °F - 62.4 °F 90% 30.03 in 10.0 mi NE 4.6 mph - N/A   Overcast
9:58 AM 69.1 °F - 62.2 °F 79% 30.04 in 10.0 mi East 4.6 mph - N/A   Overcast
10:58 AM 72.0 °F - 63.3 °F 74% 30.04 in 10.0 mi SW 2.3 mph - N/A   Overcast
11:55 AM 73.4 °F - 62.6 °F 69% 30.03 in 10.0 mi Calm Calm - N/A   Overcast
12:58 PM 77.7 °F - 63.0 °F 60% 30.01 in 10.0 mi Variable 3.5 mph - N/A   Overcast
1:58 PM 79.5 °F - 62.6 °F 56% 29.99 in 10.0 mi NNE 8.1 mph - N/A   Mostly Cloudy
2:58 PM 81.1 °F 82.1 °F 62.2 °F 52% 29.96 in 10.0 mi North 4.6 mph - N/A   Overcast
3:58 PM 81.5 °F 82.7 °F 62.6 °F 53% 29.94 in 10.0 mi Variable 2.3 mph - N/A   Clear
4:58 PM 81.7 °F 82.6 °F 62.1 °F 51% 29.94 in 10.0 mi NE 5.8 mph - N/A   Clear
5:58 PM 80.8 °F 81.9 °F 62.1 °F 53% 29.94 in 10.0 mi NE 1.2 mph - N/A   Clear
6:58 PM 76.6 °F - 64.9 °F 67% 29.96 in 10.0 mi NE 2.3 mph - N/A   Clear
7:55 PM 71.6 °F - 64.4 °F 78% 29.96 in 10.0 mi Calm Calm - N/A Rain Light Rain
7:58 PM 71.6 °F - 64.4 °F 78% 29.96 in 10.0 mi Calm Calm - N/A Rain Light Rain
8:09 PM 69.8 °F - 64.4 °F 83% 29.96 in 10.0 mi Calm Calm - N/A   Clear
8:58 PM 68.5 °F - 63.9 °F 85% 29.98 in 10.0 mi Calm Calm - 0.00 in   Clear
9:58 PM 66.9 °F - 63.5 °F 89% 30.00 in 10.0 mi NNW 1.2 mph - N/A   Clear
10:58 PM 64.9 °F - 63.0 °F 93% 30.00 in 10.0 mi ENE 1.2 mph - N/A   Clear
11:54 PM 64.4 °F - 62.6 °F 94% 29.98 in 10.0 mi ESE 3.5 mph - N/A Rain Light Rain
11:58 PM 64.8 °F - 63.1 °F 94% 29.99 in 10.0 mi East 2.3 mph - 0.00 in Rain Light Rain